﻿測定場所 (Monitoring sites),日付 (Measurement date),時間 (Measurement time),線量率 最大値 (max) μGy/h,線量率 最小値 (min) μGy/h,線量率 平均値 (average) μGy/h,
小平 (Kodaira),2015-03-08,23:01～24:00,0.0343,0.0298,0.0316,
小平 (Kodaira),2015-03-08,22:01～23:00,0.0344,0.0295,0.0321,
小平 (Kodaira),2015-03-08,21:01～22:00,0.0346,0.0300,0.0320,
小平 (Kodaira),2015-03-08,20:01～21:00,0.0346,0.0303,0.0317,
小平 (Kodaira),2015-03-08,19:01～20:00,0.0332,0.0298,0.0314,
小平 (Kodaira),2015-03-08,18:01～19:00,0.0340,0.0296,0.0317,
小平 (Kodaira),2015-03-08,17:01～18:00,0.0335,0.0293,0.0315,
小平 (Kodaira),2015-03-08,16:01～17:00,0.0339,0.0291,0.0317,
小平 (Kodaira),2015-03-08,15:01～16:00,0.0345,0.0299,0.0319,
小平 (Kodaira),2015-03-08,14:01～15:00,0.0338,0.0300,0.0321,
小平 (Kodaira),2015-03-08,13:01～14:00,0.0343,0.0302,0.0328,
小平 (Kodaira),2015-03-08,12:01～13:00,0.0367,0.0317,0.0341,
小平 (Kodaira),2015-03-08,11:01～12:00,0.0383,0.0332,0.0353,
小平 (Kodaira),2015-03-08,10:01～11:00,0.0371,0.0331,0.0353,
小平 (Kodaira),2015-03-08,09:01～10:00,0.0389,0.0333,0.0357,
小平 (Kodaira),2015-03-08,08:01～09:00,0.0372,0.0332,0.0350,
小平 (Kodaira),2015-03-08,07:01～08:00,0.0359,0.0304,0.0336,
小平 (Kodaira),2015-03-08,06:01～07:00,0.0344,0.0307,0.0327,
小平 (Kodaira),2015-03-08,05:01～06:00,0.0356,0.0308,0.0333,
小平 (Kodaira),2015-03-08,04:01～05:00,0.0366,0.0325,0.0347,
小平 (Kodaira),2015-03-08,03:01～04:00,0.0408,0.0327,0.0373,
小平 (Kodaira),2015-03-08,02:01～03:00,0.0399,0.0321,0.0357,
小平 (Kodaira),2015-03-08,01:01～02:00,0.0352,0.0314,0.0332,
小平 (Kodaira),2015-03-08,00:01～01:00,0.0345,0.0302,0.0326,
小平 (Kodaira),2015-03-07,23:01～24:00,0.0350,0.0303,0.0323,
小平 (Kodaira),2015-03-07,22:01～23:00,0.0345,0.0293,0.0321,
小平 (Kodaira),2015-03-07,21:01～22:00,0.0337,0.0303,0.0320,
小平 (Kodaira),2015-03-07,20:01～21:00,0.0339,0.0299,0.0320,
小平 (Kodaira),2015-03-07,19:01～20:00,0.0343,0.0294,0.0319,
小平 (Kodaira),2015-03-07,18:01～19:00,0.0341,0.0301,0.0319,
小平 (Kodaira),2015-03-07,17:01～18:00,0.0335,0.0297,0.0315,
小平 (Kodaira),2015-03-07,16:01～17:00,0.0344,0.0297,0.0318,
小平 (Kodaira),2015-03-07,15:01～16:00,0.0338,0.0294,0.0317,
小平 (Kodaira),2015-03-07,14:01～15:00,0.0330,0.0301,0.0317,
小平 (Kodaira),2015-03-07,13:01～14:00,0.0346,0.0304,0.0323,
小平 (Kodaira),2015-03-07,12:01～13:00,0.0364,0.0325,0.0343,
小平 (Kodaira),2015-03-07,11:01～12:00,0.0393,0.0325,0.0348,
小平 (Kodaira),2015-03-07,10:01～11:00,0.0354,0.0320,0.0337,
小平 (Kodaira),2015-03-07,09:01～10:00,0.0367,0.0320,0.0342,
小平 (Kodaira),2015-03-07,08:01～09:00,0.0360,0.0331,0.0346,
小平 (Kodaira),2015-03-07,07:01～08:00,0.0365,0.0326,0.0343,
小平 (Kodaira),2015-03-07,06:01～07:00,0.0377,0.0331,0.0355,
小平 (Kodaira),2015-03-07,05:01～06:00,0.0378,0.0332,0.0357,
小平 (Kodaira),2015-03-07,04:01～05:00,0.0373,0.0335,0.0352,
小平 (Kodaira),2015-03-07,03:01～04:00,0.0377,0.0334,0.0356,
小平 (Kodaira),2015-03-07,02:01～03:00,0.0420,0.0353,0.0375,
小平 (Kodaira),2015-03-07,01:01～02:00,0.0455,0.0365,0.0409,
小平 (Kodaira),2015-03-07,00:01～01:00,0.0450,0.0367,0.0411,
小平 (Kodaira),2015-03-06,23:01～24:00,0.0421,0.0323,0.0372,
小平 (Kodaira),2015-03-06,22:01～23:00,0.0351,0.0299,0.0325,
小平 (Kodaira),2015-03-06,21:01～22:00,0.0338,0.0294,0.0319,
小平 (Kodaira),2015-03-06,20:01～21:00,0.0345,0.0304,0.0321,
小平 (Kodaira),2015-03-06,19:01～20:00,0.0336,0.0299,0.0317,
小平 (Kodaira),2015-03-06,18:01～19:00,0.0337,0.0297,0.0317,
小平 (Kodaira),2015-03-06,17:01～18:00,0.0348,0.0297,0.0320,
小平 (Kodaira),2015-03-06,16:01～17:00,0.0339,0.0299,0.0321,
小平 (Kodaira),2015-03-06,15:01～16:00,0.0348,0.0298,0.0320,
小平 (Kodaira),2015-03-06,14:01～15:00,0.0343,0.0298,0.0324,
小平 (Kodaira),2015-03-06,13:01～14:00,0.0349,0.0304,0.0326,
小平 (Kodaira),2015-03-06,12:01～13:00,0.0347,0.0304,0.0323,
小平 (Kodaira),2015-03-06,11:01～12:00,0.0345,0.0300,0.0322,
小平 (Kodaira),2015-03-06,10:01～11:00,0.0344,0.0293,0.0323,
小平 (Kodaira),2015-03-06,09:01～10:00,0.0352,0.0309,0.0324,
小平 (Kodaira),2015-03-06,08:01～09:00,0.0347,0.0301,0.0323,
小平 (Kodaira),2015-03-06,07:01～08:00,0.0336,0.0309,0.0323,
小平 (Kodaira),2015-03-06,06:01～07:00,0.0337,0.0295,0.0322,
小平 (Kodaira),2015-03-06,05:01～06:00,0.0339,0.0296,0.0323,
小平 (Kodaira),2015-03-06,04:01～05:00,0.0350,0.0305,0.0326,
小平 (Kodaira),2015-03-06,03:01～04:00,0.0356,0.0299,0.0325,
小平 (Kodaira),2015-03-06,02:01～03:00,0.0338,0.0302,0.0323,
小平 (Kodaira),2015-03-06,01:01～02:00,0.0346,0.0305,0.0326,
小平 (Kodaira),2015-03-06,00:01～01:00,0.0342,0.0305,0.0322,
小平 (Kodaira),2015-03-05,23:01～24:00,0.0342,0.0300,0.0322,
小平 (Kodaira),2015-03-05,22:01～23:00,0.0340,0.0307,0.0322,
小平 (Kodaira),2015-03-05,21:01～22:00,0.0343,0.0301,0.0323,
小平 (Kodaira),2015-03-05,20:01～21:00,0.0345,0.0305,0.0323,
小平 (Kodaira),2015-03-05,19:01～20:00,0.0348,0.0301,0.0322,
小平 (Kodaira),2015-03-05,18:01～19:00,0.0339,0.0306,0.0321,
小平 (Kodaira),2015-03-05,17:01～18:00,0.0346,0.0309,0.0324,
小平 (Kodaira),2015-03-05,16:01～17:00,0.0340,0.0295,0.0321,
小平 (Kodaira),2015-03-05,15:01～16:00,0.0350,0.0307,0.0326,
小平 (Kodaira),2015-03-05,14:01～15:00,0.0350,0.0301,0.0328,
小平 (Kodaira),2015-03-05,13:01～14:00,0.0348,0.0304,0.0327,
小平 (Kodaira),2015-03-05,12:01～13:00,0.0354,0.0313,0.0330,
小平 (Kodaira),2015-03-05,11:01～12:00,0.0345,0.0308,0.0325,
小平 (Kodaira),2015-03-05,10:01～11:00,0.0347,0.0310,0.0330,
小平 (Kodaira),2015-03-05,09:01～10:00,0.0347,0.0300,0.0327,
小平 (Kodaira),2015-03-05,08:01～09:00,0.0353,0.0300,0.0324,
小平 (Kodaira),2015-03-05,07:01～08:00,0.0338,0.0297,0.0320,
小平 (Kodaira),2015-03-05,06:01～07:00,0.0346,0.0297,0.0321,
小平 (Kodaira),2015-03-05,05:01～06:00,0.0341,0.0309,0.0324,
小平 (Kodaira),2015-03-05,04:01～05:00,0.0339,0.0303,0.0322,
小平 (Kodaira),2015-03-05,03:01～04:00,0.0340,0.0304,0.0323,
小平 (Kodaira),2015-03-05,02:01～03:00,0.0340,0.0308,0.0323,
小平 (Kodaira),2015-03-05,01:01～02:00,0.0339,0.0300,0.0323,
小平 (Kodaira),2015-03-05,00:01～01:00,0.0344,0.0296,0.0320,
小平 (Kodaira),2015-03-04,23:01～24:00,0.0339,0.0296,0.0320,
小平 (Kodaira),2015-03-04,22:01～23:00,0.0338,0.0302,0.0318,
小平 (Kodaira),2015-03-04,21:01～22:00,0.0345,0.0297,0.0319,
小平 (Kodaira),2015-03-04,20:01～21:00,0.0339,0.0309,0.0324,
小平 (Kodaira),2015-03-04,19:01～20:00,0.0334,0.0305,0.0319,
小平 (Kodaira),2015-03-04,18:01～19:00,0.0337,0.0298,0.0317,
小平 (Kodaira),2015-03-04,17:01～18:00,0.0345,0.0297,0.0316,
小平 (Kodaira),2015-03-04,16:01～17:00,0.0337,0.0300,0.0318,
小平 (Kodaira),2015-03-04,15:01～16:00,0.0347,0.0302,0.0322,
小平 (Kodaira),2015-03-04,14:01～15:00,0.0341,0.0302,0.0321,
小平 (Kodaira),2015-03-04,13:01～14:00,0.0348,0.0301,0.0324,
小平 (Kodaira),2015-03-04,12:01～13:00,0.0346,0.0310,0.0322,
小平 (Kodaira),2015-03-04,11:01～12:00,0.0343,0.0303,0.0323,
小平 (Kodaira),2015-03-04,10:01～11:00,0.0345,0.0298,0.0324,
小平 (Kodaira),2015-03-04,09:01～10:00,0.0359,0.0305,0.0328,
小平 (Kodaira),2015-03-04,08:01～09:00,0.0352,0.0304,0.0324,
小平 (Kodaira),2015-03-04,07:01～08:00,0.0349,0.0308,0.0332,
小平 (Kodaira),2015-03-04,06:01～07:00,0.0410,0.0338,0.0364,
小平 (Kodaira),2015-03-04,05:01～06:00,0.0458,0.0373,0.0419,
小平 (Kodaira),2015-03-04,04:01～05:00,0.0522,0.0429,0.0469,
小平 (Kodaira),2015-03-04,03:01～04:00,0.0529,0.0440,0.0482,
小平 (Kodaira),2015-03-04,02:01～03:00,0.0497,0.0428,0.0461,
小平 (Kodaira),2015-03-04,01:01～02:00,0.0487,0.0402,0.0437,
小平 (Kodaira),2015-03-04,00:01～01:00,0.0445,0.0368,0.0412,
小平 (Kodaira),2015-03-03,23:01～24:00,0.0428,0.0354,0.0388,
小平 (Kodaira),2015-03-03,22:01～23:00,0.0414,0.0356,0.0380,
小平 (Kodaira),2015-03-03,21:01～22:00,0.0389,0.0311,0.0351,
小平 (Kodaira),2015-03-03,20:01～21:00,0.0347,0.0299,0.0323,
小平 (Kodaira),2015-03-03,19:01～20:00,0.0353,0.0303,0.0325,
小平 (Kodaira),2015-03-03,18:01～19:00,0.0352,0.0301,0.0324,
小平 (Kodaira),2015-03-03,17:01～18:00,0.0343,0.0299,0.0326,
小平 (Kodaira),2015-03-03,16:01～17:00,0.0354,0.0307,0.0325,
小平 (Kodaira),2015-03-03,15:01～16:00,0.0347,0.0303,0.0325,
小平 (Kodaira),2015-03-03,14:01～15:00,0.0359,0.0308,0.0326,
小平 (Kodaira),2015-03-03,13:01～14:00,0.0348,0.0309,0.0326,
小平 (Kodaira),2015-03-03,12:01～13:00,0.0342,0.0302,0.0326,
小平 (Kodaira),2015-03-03,11:01～12:00,0.0341,0.0306,0.0325,
小平 (Kodaira),2015-03-03,10:01～11:00,0.0354,0.0308,0.0330,
小平 (Kodaira),2015-03-03,09:01～10:00,0.0352,0.0308,0.0334,
小平 (Kodaira),2015-03-03,08:01～09:00,0.0354,0.0315,0.0330,
小平 (Kodaira),2015-03-03,07:01～08:00,0.0349,0.0316,0.0332,
小平 (Kodaira),2015-03-03,06:01～07:00,0.0349,0.0309,0.0328,
小平 (Kodaira),2015-03-03,05:01～06:00,0.0348,0.0310,0.0331,
小平 (Kodaira),2015-03-03,04:01～05:00,0.0353,0.0310,0.0335,
小平 (Kodaira),2015-03-03,03:01～04:00,0.0352,0.0311,0.0329,
小平 (Kodaira),2015-03-03,02:01～03:00,0.0350,0.0310,0.0325,
小平 (Kodaira),2015-03-03,01:01～02:00,0.0349,0.0307,0.0322,
小平 (Kodaira),2015-03-03,00:01～01:00,0.0356,0.0303,0.0323,
小平 (Kodaira),2015-03-02,23:01～24:00,0.0358,0.0308,0.0326,
小平 (Kodaira),2015-03-02,22:01～23:00,0.0348,0.0303,0.0328,
小平 (Kodaira),2015-03-02,21:01～22:00,0.0348,0.0309,0.0324,
小平 (Kodaira),2015-03-02,20:01～21:00,0.0345,0.0310,0.0325,
小平 (Kodaira),2015-03-02,19:01～20:00,0.0344,0.0308,0.0326,
小平 (Kodaira),2015-03-02,18:01～19:00,0.0344,0.0309,0.0325,
小平 (Kodaira),2015-03-02,17:01～18:00,0.0345,0.0306,0.0322,
小平 (Kodaira),2015-03-02,16:01～17:00,0.0343,0.0299,0.0324,
小平 (Kodaira),2015-03-02,15:01～16:00,0.0352,0.0299,0.0326,
小平 (Kodaira),2015-03-02,14:01～15:00,0.0337,0.0304,0.0323,
小平 (Kodaira),2015-03-02,13:01～14:00,0.0339,0.0302,0.0320,
小平 (Kodaira),2015-03-02,12:01～13:00,0.0342,0.0306,0.0326,
小平 (Kodaira),2015-03-02,11:01～12:00,0.0348,0.0298,0.0325,
小平 (Kodaira),2015-03-02,10:01～11:00,0.0342,0.0311,0.0326,
小平 (Kodaira),2015-03-02,09:01～10:00,0.0342,0.0300,0.0325,
小平 (Kodaira),2015-03-02,08:01～09:00,0.0355,0.0306,0.0323,
小平 (Kodaira),2015-03-02,07:01～08:00,0.0340,0.0294,0.0321,
小平 (Kodaira),2015-03-02,06:01～07:00,0.0344,0.0300,0.0321,
小平 (Kodaira),2015-03-02,05:01～06:00,0.0334,0.0304,0.0319,
小平 (Kodaira),2015-03-02,04:01～05:00,0.0339,0.0302,0.0320,
小平 (Kodaira),2015-03-02,03:01～04:00,0.0343,0.0304,0.0322,
小平 (Kodaira),2015-03-02,02:01～03:00,0.0350,0.0304,0.0324,
小平 (Kodaira),2015-03-02,01:01～02:00,0.0343,0.0300,0.0326,
小平 (Kodaira),2015-03-02,00:01～01:00,0.0342,0.0300,0.0322,
